www.pogodaiklimat.ru

Погода и климат >> Архив погоды >> Россия >> Коми >> Ухта


АРХИВ ПОГОДЫ в Ухте

Время (UTC), дата Ветер
(напр.,м/с)
 
Видим.   Явления Облачность Т
(С)
Тd
(С)
f
(%)
Тe
(С)
Тes
(С)
Комфортность P
(гПа)
Po
(гПа)
Тmin
(С)
Tmax
(С)
R
(мм)
R24
(мм)
S
(см)
09 10.06 ЮЗ 2 1200 м в посл. час ливневой дождь 9/1 1000 м
[Cb cap Ac trans Ci fib]
+23.6 +17.4 68 +27 +34 жарко 1008.3 992.7
12 10.06 ЮЗ 2 12 км гроза без осадков {ливн. осадки} 9/8 1000 м
[Cb cap Ac trans Ci fib]
+19.5 +15.4 77 +22 +23 комфорт 1007.1 991.3
15 10.06 ЮЗ 2 12 км {гроза} 10/6 1200 м
[Cb cap Ac trans Ci fib]
+21.4 +15.9 71 +25 +25 комфорт 1006.2 990.5 +25.5 0.5
18 10.06 СЗ 5 12 км {гроза} 10/8 800 м
[Cb cap Ac trans]
+18.6 +16.3 86 +19 +19 тепло 1007.3 991.4
21 10.06 Ю 1 10 км 4/3 1000 м
[Cb cap Ac trans]
+13.9 +13.3 96 +14 +14 тепло 1008.1 992.0
00 11.06 Ю 2 12 км 8/8 1200 м
[Sc]
+13.4 +12.6 95 +13 +13 тепло 1008.3 992.1
03 11.06 ЮЗ 2 12 км {ливн. осадки} 10/3 1000 м
[Cb cap Ac trans]
+13.8 +12.9 94 +13 +14 тепло 1007.2 991.1 +13.3 2
06 11.06 СЗ 2 12 км {ливн. осадки} 8/3 1000 м
[Cb cap Ac trans]
+20.2 +11.5 57 +23 +27 комфорт 1006.3 990.5
09 11.06 З 5-10
{11}
12 км {гроза} 6/6 1200 м
[Cb cap]
+21.4 +8.2 43 +23 +25 комфорт 1005.3 989.6
12 11.06 З 5
{11}
12 км {гроза, ливн. осадки} 9/3 1000 м
[Cb cap Ci fib]
+20.7 +8.8 46 +22 +24 комфорт 1005.4 989.6
15 11.06 штиль 0
{14}
12 км слаб. ливневой дождь 10/10 480 м
[Cb cap]
+13.4 +11.8 90 +13 +13 по сезону 1007.2 991.0 +22.2 1
18 11.06 ЮЗ 2
{14}
12 км {ливн. осадки} 8/3 600 м
[Cb cap Ac trans Ci fib]
+12.6 +11.9 95 +12 +12 по сезону 1006.1 989.9
21 11.06 ЮЗ 2 10 км в посл. час ливневой дождь 10/6 480 м
[Cb cap Ac trans]
+11.8 +10.6 92 +11 +11 по сезону 1005.5 989.2
00 12.06 З 4
{10}
12 км {ливн. осадки} 10/10 600 м
[Cb cap]
+8.4 +5.9 84 +5 +5 по сезону 1005.0 988.5
03 12.06 З 3 4000 м слаб. ливневой дождь 10/10 300 м
[Cb cap]
+6.6 +5.9 95 +3 +3 холодно 1004.5 987.9 +6.6 0.6
06 12.06 С 5
{10}
5000 м слаб. ливневой дождь 10/10 240 м
[Cb cap]
+4.2 +3.5 95 -1 -1 очень
холодно
1006.5 989.7 +4.2
09 12.06 С 3 8000 м слаб. ливневой дождь 10/10 420 м
[Cb cap]
+5.0 +4.1 94 +1 +1 очень
холодно
1008.8 992.1
12 12.06 С 4-10
{10}
12 км в посл. час ливневой дождь 9/8 700 м
[Cb cap Cc]
+6.9 +2.8 75 +3 +4 очень
холодно
1010.5 993.8
15 12.06 С 6-12
{14}
12 км 9/8 900 м
[Cb cap Cc]
+7.9 +1.3 63 +4 +4 очень
холодно
1011.1 994.4 +8.7 4
18 12.06 СЗ 4
{12}
12 км 10/10 750 м
[Cb cap]
+5.0 +0.3 72 +1 +1 очень
холодно
1012.7 995.9
21 12.06 СЗ 3 10 км 10/6 960 м
[Sc Ac und]
+4.0 +0.6 78 0 0 очень
холодно
1013.4 996.5
00 13.06 СЗ 4 12 км 10/6 630 м
[Sc Ac trans]
+3.1 -1.0 74 -1 -1 очень
холодно
1013.7 996.9
03 13.06 СЗ 5
{11}
12 км 10/10 480 м
[Sc]
+3.1 -0.4 78 -2 -2 очень
холодно
1014.7 997.6 +2.7
06 13.06 СЗ 5-11
{13}
10 км слаб. ливневой дождь 10/10 600 м
[Cb cap]
+4.9 +1.0 76 0 0 очень
холодно
1015.5 998.6 +2.5
09 13.06 СЗ 5-11
{17}
12 км {ливн. осадки} 9/8 1200 м
[Cu hum Ci fib]
+8.9 -0.2 53 +6 +7 очень
холодно
1015.3 998.6
12 13.06 СЗ 5-11
{15}
12 км слаб. ливневой дождь 9/8 1300 м
[Cu hum Ci fib]
+10.9 -0.2 46 +9 +9 холодно 1014.2 997.7
15 13.06 СЗ 5-10
{15}
12 км 9/8 1300 м
[Cu med, cong Ci fib]
+10.4 -0.9 45 +8 +8 холодно 1014.5 997.9 +11.3 0.0
18 13.06 СЗ 5-11
{16}
12 км 10/3 600 м
[Sc diur, vesp Ci sp]
+7.0 -1.2 56 +3 +3 очень
холодно
1014.5 997.7
21 13.06 СЗ 2
{12}
12 км 10/10 1080 м
[Sc]
+4.4 -1.0 68 +2 +2 холодно 1014.1 997.2
00 14.06 СЗ 3
{12}
12 км 10/10 1000 м
[Sc]
+3.6 -1.4 70 0 0 холодно 1013.5 996.5
03 14.06 С 4 12 км 10/10 720 м
[Cb cap]
+4.0 -0.9 70 -0 -0 очень
холодно
1013.3 996.4 +3.5
06 14.06 СЗ 3 12 км 10/10 900 м
[Cb cap]
+5.9 -0.1 65 +3 +3 очень
холодно
1013.1 996.3
09 14.06 СЗ 3 12 км 9/8 1300 м
[Sc Ci fib]
+9.7 0.0 51 +8 +10 холодно 1011.8 995.2
12 14.06 СЗ 3 12 км 9/8 1380 м
[Cu hum Ci fib]
+11.1 +0.4 48 +10 +11 холодно 1011.2 994.7
15 14.06 СЗ 2 12 км 6/6 1380 м
[Cu hum]
+12.3 +0.9 46 +12 +13 прохладно 1009.7 993.3 +12.8
18 14.06 СЗ 1 12 км 9/3 1000 м
[Sc Ac trans Ci fib]
+7.9 +2.5 69 +7 +7 холодно 1009.4 992.7
21 14.06 12 км 10/0
[Ac As]
+6.1 +1.3 71 1008.0 991.3
00 15.06 штиль 0 12 км 10/5 1200 м
[Cb cap Ac trans]
+5.8 +2.6 80 +5 +5 прохладно 1006.7 990.0
03 15.06 С 2 10 км слаб. ливневой дождь 10/6 700 м
[Cb cap Ac As]
+5.6 +3.5 86 +3 +4 очень
холодно
1005.5 988.8 +5.5 0.3
06 15.06 С 2 12 км в посл. час ливневой дождь 10/6 570 м
[Cb cap Ac trans]
+5.8 +3.7 86 +3 +5 очень
холодно
1005.5 988.8 +4.6
09 15.06 З 2 10 км слаб. ливневой дождь 8/4 1000 м
[Cb cap Ac trans Ci fib]
+6.7 +4.1 83 +4 +10 очень
холодно
1005.1 988.5
12 15.06 З 4 12 км {ливн. осадки} 9/4 1200 м
[Cb cap Ac trans]
+11.2 +2.9 57 +9 +10 очень
холодно
1004.7 988.3
15 15.06 С 3 12 км {ливн. осадки} 9/4
[Cb cap Ac trans Ci fib]
+8.8 +3.2 68 +7 +7 очень
холодно
1004.8 988.3 +12.0 2
18 15.06 СЗ 1 12 км {ливн. осадки} 6/3 1000 м
[Sc diur, vesp Ac cuf]
+4.9 +1.3 77 +4 +4 очень
холодно
1005.6 988.9
21 15.06 С 2 12 км {ливн. осадки} 9/6 1000 м
[Cb cap Ac trans]
+4.7 +2.2 84 +2 +2 очень
холодно
1005.9 989.1
00 16.06 З 2 12 км {ливн. осадки} 10/3 600 м
[Sc Ac trans Ci fib]
+3.4 +0.5 81 +1 +1 холодно 1006.5 989.6
03 16.06 З 1 12 км 10/10 660 м
[Cb cap]
+4.5 +2.5 87 +3 +3 очень
холодно
1006.1 989.3 +3.4 0.0
06 16.06 СЗ 3 12 км {ливн. осадки} 10/8 570 м
[Cb cap Cc]
+7.2 +3.4 77 +4 +6 очень
холодно
1005.1 988.5
09 16.06 З 3 12 км 10/10 900 м
[Cb cap]
+9.3 +3.0 65 +7 +7 очень
холодно
1004.1 987.6
12 16.06 З 4 12 км 10/8 930 м
[Cb cap Ci fib]
+10.8 +5.6 70 +9 +9 очень
холодно
1003.1 986.8
15 16.06 З 3
{10}
12 км {ливн. осадки} 10/8 1000 м
[Cb cap Ci fib]
+11.2 +4.3 62 +10 +10 холодно 1002.1 985.8 +11.6 0.1
18 16.06 С 2
{10}
10 км слаб. ливневой дождь 10/10 720 м
[Cb cap]
+9.7 +6.2 79 +8 +8 холодно 1001.4 985.0
21 16.06 СЗ 2 10 км {ливн. осадки} 10/10 1300 м
[Cb cap]
+6.1 +5.2 94 +4 +4 холодно 1002.0 985.4
00 17.06 С 2 12 км {ливн. осадки} 10/10 1320 м
[Cb cap]
+5.0 +4.1 94 +2 +2 холодно 1002.3 985.6
03 17.06 СЗ 3 12 км 10/10 960 м
[Cb cap]
+5.5 +3.1 85 +2 +2 очень
холодно
1002.9 986.2 +5.0 2
06 17.06 СЗ 3 10 км слаб. ливневой дождь 10/8 660 м
[Cb cap Ac trans]
+5.8 +1.3 73 +3 +3 очень
холодно
1003.5 986.9

 

Местоположение метеостанции Ухта (Коми, Россия): широта 63.55 долгота 53.82 высота над уровнем моря 137 м.

В архиве по умолчанию представлена погода в Ухте за последнюю неделю. Архивные данные за месяц целиком и за предыдущие месяцы, начиная с января 2011 года, Вы можете получить, выбрав интересующий диапазон дат из раскрывающегося списка и нажав кнопку "Ввод!".


*Определитесь, кто Вы:
робот инопланетянин человек

Внимание! Время в таблицах - всемирное. Для получения местного времени необходимо прибавить поправку, которая равна 3 ч.

Смотрите также архив погоды в соседних городах и на ближайших метеорологических станциях:

Погода в Кедва-Воме (Коми, Россия) (76 км)
Погода в Ираеле (Коми, Россия) (133 км)
Погода в Троицко-Печорском (Коми, Россия) (152 км)
Погода в Помоздино (Коми, Россия) (154 км)
Погода в Весляне (Коми, Россия) (159 км)
Погода в Ижме (Коми, Россия) (161 км)
Погода в Луни (Коми, Россия) (162 км)
Погода в Вуктыле (Коми, Россия) (176 км)
Погода в Усть-Щугоре (Коми, Россия) (202 км)
Погода в Усть-Куломе (Коми, Россия) (208 км)

Пояснения к столбцам:

Ветер - указаны скорость ветра в м/с - средняя за 10 мин, порывы в срок и между сроками (в фигурных скобках) и направление, откуда дует ветер: С - северный, СВ - северо-восточный, В - восточный, ЮВ - юго-восточный, Ю - южный, ЮЗ - юго-западный, З - западный, СЗ - северо-западный.
Видимость - горизонтальная дальность видимости в метрах или километрах. При видимости от 1 до 10 км при отсутствии осадков обычно наблюдается дымка, при ухудшении видимости до 1 км и менее - туман. В сухую погоду видимость может ухудшаться дымом, пылью или мглою.
Явления - указаны атмосферные явления, наблюдавшиеся в срок или в последний час перед сроком; фигурными скобками обозначены явления, наблюдавшиеся между сроками (за 1-3 часа до срока); квадратными скобками обозначены град или гололедные отложения с указанием их диаметра в мм.
Облачность - указаны через наклонную черту общая и нижняя облачность в баллах и высота нижней границы облаков в метрах; квадратными скобками обозначены формы облаков: Ci - перистые, Cs - перисто-слоистые, Cc - перисто-кучевые, Ac - высококучевые, As - высокослоистые, Sc - слоисто-кучевые, Ns - слоисто-дождевые, Cu - кучевые, Cb - кучево-дождевые. Подробнее классификацию облаков см. в Атласе облаков (PDF).
T - Температура воздуха - температура, измеренная на высоте 2 м над землей.
Td - Температура точки росы - температура, при понижении до которой содержащийся в воздухе водяной пар достигнет насыщения.
f - Относительная влажность воздуха - влажноcть воздуха, измеренная на высоте 2 м над землей.
Te - Эффективная температура - температура, которую ощущает одетый по сезону человек в тени. Характеристика душности погоды. При расчете учитывается влияние влажности воздуха и скорости ветра на теплоощущения человека.
Tes - Эффективная температура на солнце - температура, которую ощущает человек, с поправкой на солнечный нагрев. Характеристика знойности погоды. Зависит от высоты солнца над горизонтом, облачности и скорости ветра. Ночью, в пасмурную погоду, а также при ветре 12 м/с и более поправка равна нулю.
P - Атмосферное давление - приведенное к уровню моря атмосферное давление.
Po - Атмосферное давление - измеренное на уровне метеостанции атмосферное давление.
Tmin - Минимальная температура - минимум температуры воздуха на высоте 2 м над землей.
Tmax - Максимальная температура - максимум температуры воздуха на высоте 2 м над землей.
R - Количество осадков - Количество выпавших осадков за период времени, мм. При наведении курсора мыши на число - период времени, за который выпало указанное количество осадков.
R24 - Количество осадков - Количество выпавших осадков за 24 часа, мм.
S - Снежный покров - Высота снежного покрова, см. При наведении курсора мыши на число - состояние снежного покрова и степень покрытия местности в баллах.